Date String (YYYY-MM-DD hh:mm:ss) UTC,Instrument flags,absolute air pressure of the measurement (hPa),sample flow rate (lpm),inlet stack bypass flow (lpm),air temperature of the measurement (°C),ambient temperature measured by the external sensor (°C),aerosol sample conditioner tube jacket temperature (°C),OPC LED temperature (°C),internal box temperature (°C),relative humidity of the measurement (%),span deviation,mass concentration of particles derived from Lorenz-Mie calculation of OPC scattering (μg/m³),mass concentration of particles derived from Lorenz-Mie calculation of OPC scattering (μg/m³),mass concentration of particles derived from Lorenz-Mie calculation of OPC scattering (μg/m³)
DateTimeUTC,F1_M11,P_M11,Q1_M11,Q2_M11,T1_M11,T2_M11,T3_M11,T4_M11,T5_M11,U1_M11,ZSPAN_M11,X0_M11,X2_M11,X1_M11
2023-09-07 14:00:00,SystemResetWarning,0832.5,4.99,000.00,028.4,026.5,000.0,036.9,029.9,17.3,0002.0,0014.44,0005.52,0004.44
2023-09-07 14:01:00,SystemResetWarning,0832.6,5.00,000.00,028.4,026.7,000.0,036.9,029.9,17.5,0002.1,0014.42,0005.50,0004.44
2023-09-07 14:02:00,SystemResetWarning,0832.5,5.00,000.00,028.4,026.9,000.0,036.8,030.0,17.8,0002.2,0014.00,0005.41,0004.39
2023-09-07 14:03:00,SystemResetWarning,0832.5,5.01,000.00,028.5,027.0,000.0,036.9,030.0,16.5,0002.4,0013.88,0005.34,0004.32
2023-09-07 14:04:00,SystemResetWarning,0832.5,5.00,000.00,028.5,027.1,000.0,036.9,030.1,15.1,0002.2,0014.13,0005.29,0004.25
2023-09-07 14:05:00,SystemResetWarning,0832.5,5.00,000.00,028.5,027.2,000.0,036.9,030.1,17.2,0002.1,0014.02,0005.24,0004.19
2023-09-07 14:06:00,SystemResetWarning,0832.5,4.99,000.00,028.5,027.3,000.0,036.9,030.2,18.3,0002.1,0013.88,0005.12,0004.12
2023-09-07 14:07:00,SystemResetWarning,0832.5,5.00,000.00,028.6,027.4,000.0,036.9,030.2,19.2,0002.4,0013.73,0005.10,0004.08
2023-09-07 14:08:00,SystemResetWarning,0832.5,4.99,000.00,028.6,027.5,000.0,036.9,030.2,19.6,0002.6,0014.11,0005.05,0004.03
2023-09-07 14:09:00,SystemResetWarning,0832.5,5.00,000.00,028.6,027.6,000.0,036.9,030.3,18.9,0002.4,0014.76,0004.98,0003.97
2023-09-07 14:10:00,SystemResetWarning,0832.5,5.00,000.00,028.7,027.6,000.0,037.0,030.3,17.2,0002.6,0014.07,0004.89,0003.88
2023-09-07 14:11:00,SystemResetWarning,0832.5,5.00,000.00,028.7,027.6,000.0,037.0,030.3,13.6,0002.7,0013.61,0004.83,0003.81
2023-09-07 14:12:00,SystemResetWarning,0832.5,5.00,000.00,028.7,027.7,000.0,037.0,030.3,12.8,0002.8,0013.00,0004.80,0003.78
2023-09-07 14:13:00,SystemResetWarning,0832.4,5.00,000.00,028.7,027.7,000.0,037.0,030.3,12.8,0002.5,0013.70,0004.77,0003.77
2023-09-07 14:14:00,SystemResetWarning,0832.5,5.01,000.00,028.7,027.7,000.0,037.0,030.4,12.6,0002.4,0014.58,0004.74,0003.77
2023-09-07 14:15:00,SystemResetWarning,0832.5,5.00,000.00,028.8,027.5,000.0,037.0,030.4,12.9,0002.6,0014.26,0004.75,0003.80
2023-09-07 14:16:00,SystemResetWarning,0832.5,4.98,000.00,028.7,026.2,000.0,037.0,030.0,12.7,0002.6,0014.03,0004.70,0003.80
2023-09-07 14:17:00,SystemResetWarning,0832.5,5.01,000.00,028.6,025.0,000.0,036.9,029.7,12.7,0002.6,0013.46,0004.73,0003.79
2023-09-07 14:18:00,SystemResetWarning,0832.5,5.01,000.00,028.5,025.0,000.0,036.9,029.8,12.7,0002.0,0013.72,0004.71,0003.76
2023-09-07 14:19:00,SystemResetWarning,0832.5,5.00,000.00,028.5,025.3,000.0,036.9,029.7,12.7,0002.1,0012.78,0004.69,0003.74
2023-09-07 14:20:00,SystemResetWarning,0832.4,5.00,000.00,028.4,025.6,000.0,036.9,029.7,12.9,0002.0,0013.15,0004.66,0003.73
2023-09-07 14:21:00,SystemResetWarning,0832.5,5.00,000.00,028.4,025.9,000.0,036.9,029.8,12.8,0002.2,0014.19,0004.63,0003.75
2023-09-07 14:22:00,SystemResetWarning,0832.5,5.00,000.00,028.4,026.2,000.0,036.8,029.8,12.8,0001.9,0015.17,0004.62,0003.78
2023-09-07 14:23:00,SystemResetWarning,0832.5,5.00,000.00,028.4,026.4,000.0,036.8,029.9,12.9,0002.4,0014.95,0004.57,0003.78
2023-09-07 14:24:00,SystemResetWarning,0832.5,4.99,000.00,028.4,026.6,000.0,036.8,029.9,13.0,0002.7,0014.42,0004.51,0003.75
2023-09-07 14:25:00,SystemResetWarning,0832.5,5.00,000.00,028.4,026.8,000.0,036.8,030.0,13.1,0003.1,0014.14,0004.51,0003.73
2023-09-07 14:26:00,SystemResetWarning,0832.5,5.00,000.00,028.4,026.9,000.0,036.8,030.0,12.9,0003.3,0014.53,0004.48,0003.70
2023-09-07 14:27:00,SystemResetWarning,0832.5,5.00,000.00,028.5,027.1,000.0,036.8,030.0,13.0,0003.3,0015.27,0004.46,0003.66
2023-09-07 14:28:00,SystemResetWarning,0832.5,5.00,000.00,028.5,027.2,000.0,036.9,030.1,12.7,0003.3,0015.43,0004.45,0003.64
2023-09-07 14:29:00,SystemResetWarning,0832.5,5.00,000.00,028.5,027.3,000.0,036.9,030.1,12.7,0003.4,0015.26,0004.41,0003.63
2023-09-07 14:30:00,SystemResetWarning,0832.5,5.00,000.00,028.6,027.4,000.0,036.9,030.2,13.1,0003.4,0014.97,0004.40,0003.62
2023-09-07 14:31:00,SystemResetWarning,0832.6,4.99,000.00,028.6,027.5,000.0,036.9,030.2,13.1,0003.3,0014.19,0004.34,0003.56
2023-09-07 14:32:00,SystemResetWarning,0832.5,4.99,000.00,028.6,027.5,000.0,036.9,030.2,12.8,0003.1,0012.28,0004.27,0003.49
2023-09-07 14:33:00,SystemResetWarning,0832.5,5.01,000.00,028.6,027.6,000.0,036.9,030.3,12.6,0002.9,0012.17,0004.22,0003.43
2023-09-07 14:34:00,SystemResetWarning,0832.5,5.01,000.00,028.7,027.6,000.0,037.0,030.3,12.4,0002.9,0012.58,0004.16,0003.37
2023-09-07 14:35:00,SystemResetWarning,0832.6,4.99,000.00,028.7,027.3,000.0,036.9,030.3,12.5,0002.8,0013.01,0004.15,0003.33
2023-09-07 14:36:00,SystemResetWarning,0832.6,4.99,000.00,028.6,025.7,000.0,036.9,029.8,12.6,0002.5,0012.54,0004.13,0003.29
2023-09-07 14:37:00,SystemResetWarning,0832.5,5.01,000.00,028.5,024.9,000.0,036.8,029.6,13.0,0002.5,0012.13,0004.08,0003.25
2023-09-07 14:38:00,SystemResetWarning,0832.5,5.00,000.00,028.4,025.0,000.0,036.8,029.6,13.3,0002.5,0011.60,0004.02,0003.21
2023-09-07 14:39:00,SystemResetWarning,0832.5,4.99,000.00,028.4,025.3,000.0,036.8,029.6,13.4,0002.4,0011.83,0003.89,0003.12
2023-09-07 14:40:00,SystemResetWarning,0832.5,5.00,000.00,028.3,025.7,000.0,036.8,029.6,13.6,0002.3,0012.08,0003.75,0002.95
2023-09-07 14:41:00,SystemResetWarning,0832.5,5.01,000.00,028.3,026.0,000.0,036.8,029.7,13.5,0002.1,0012.41,0003.70,0002.89
2023-09-07 14:42:00,SystemResetWarning,0832.5,5.01,000.00,028.3,026.3,000.0,036.8,029.8,13.3,0002.2,0012.54,0003.72,0002.95
2023-09-07 14:43:00,SystemResetWarning,0832.5,4.99,000.00,028.4,026.5,000.0,036.8,029.9,13.8,0001.7,0013.31,0003.80,0003.05
2023-09-07 14:44:00,SystemResetWarning,0832.5,5.00,000.00,028.4,026.7,000.0,036.8,029.9,13.5,0002.0,0012.62,0003.84,0003.10
2023-09-07 14:45:00,SystemResetWarning,0832.5,5.00,000.00,028.4,026.9,000.0,036.8,030.0,13.5,0002.2,0011.81,0003.86,0003.13
2023-09-07 14:46:00,SystemResetWarning,0832.5,5.00,000.00,028.4,027.0,000.0,036.8,030.0,13.6,0002.4,0012.24,0003.80,0003.08
2023-09-07 14:47:00,SystemResetWarning,0832.5,5.00,000.00,028.5,027.2,000.0,036.8,030.1,13.4,0000.3,0011.92,0003.66,0002.90
2023-09-07 14:48:00,SystemResetWarning,0832.5,5.00,000.00,028.5,027.3,000.0,036.8,030.1,13.2,0000.0,0012.02,0003.49,0002.69
2023-09-07 14:49:00,SystemResetWarning,0832.5,5.00,000.00,028.5,027.4,000.0,036.8,030.1,13.1,0000.0,0011.94,0003.36,0002.50
2023-09-07 14:50:00,SystemResetWarning,0832.6,5.01,000.00,028.6,027.4,000.0,036.9,030.2,12.9,0000.0,0011.26,0003.29,0002.37
2023-09-07 14:51:00,SystemResetWarning,0832.5,5.01,000.00,028.6,027.5,000.0,036.9,030.2,12.9,0000.0,0010.68,0003.26,0002.31
2023-09-07 14:52:00,SystemResetWarning,0832.5,5.00,000.00,028.6,027.5,000.0,036.9,030.2,12.9,0000.0,0009.97,0003.13,0002.13
2023-09-07 14:53:00,SystemResetWarning,0832.5,4.99,000.00,028.6,026.6,000.0,036.9,030.0,12.9,0000.0,0010.53,0002.91,0001.88
2023-09-07 14:54:00,SystemResetWarning,0832.5,5.00,000.00,028.5,025.1,000.0,036.8,029.6,12.7,0000.0,0009.59,0002.59,0001.60
2023-09-07 14:55:00,SystemResetWarning,0832.5,5.01,000.00,028.4,024.8,000.0,036.8,029.6,12.5,0000.0,0009.26,0002.26,0001.33
2023-09-07 14:56:00,SystemResetWarning,0832.5,5.01,000.00,028.3,025.0,000.0,036.7,029.5,12.9,0000.0,0009.13,0001.95,0001.08
2023-09-07 14:57:00,SystemResetWarning,0832.4,5.00,000.00,028.3,025.4,000.0,036.7,029.5,12.8,0000.0,0007.97,0001.77,0000.91
2023-09-07 14:58:00,SystemResetWarning,0832.4,5.00,000.00,028.2,025.7,000.0,036.7,029.6,12.9,0000.0,0007.59,0001.72,0000.89
2023-09-07 14:59:00,SystemResetWarning,0832.4,5.00,000.00,028.3,026.0,000.0,036.7,029.7,13.1,0000.0,0006.93,0001.74,0000.89
